Location: Andelat
(45.0600°N, 3.0610°E)
Time: 01:58:53
(UTC+00:00)

Daily predictions for brighter satellites

Satellite Brightness Start Highest point End
(mag) Time Altitude Azimuth Time Altitude Azimuth Time Altitude Azimuth
ATLAS 5 CENTAUR R/B 4.4 02:41:09 56° NNE 02:42:21 59° NE 03:09:51 10° SE
Cosmos 2082 Rocket 3.8 03:22:45 27° SE 03:24:20 31° ESE 03:29:18 10° NE
CZ-4C R/B 3.9 03:40:02 25° N 03:40:02 25° N 03:43:09 10° NNE
Cosmos 1833 Rocket 3.0 03:46:04 61° ENE 03:46:04 61° ENE 03:51:02 10° NNE
Cosmos 2123 Rocket 3.9 03:47:10 10° N 03:53:23 81° E 03:59:36 10° S
SL-16 R/B 4.5 03:51:11 10° N 03:55:11 19° NE 03:59:08 10° E
Lacrosse 5 2.4 03:56:32 54° ESE 03:56:32 54° ESE 04:01:12 10° NE
IDEFIX/ARIANE 42P 4.3 03:52:23 10° N 03:54:03 21° N 03:54:03 21° N
ATLAS 2AS CENTAUR R/B 4.3 03:53:43 18° NNW 03:58:16 31° NNE 04:04:39 10° E
CZ-2C R/B 3.1 03:54:31 10° NNE 03:59:20 52° E 04:01:55 25° SSE
ASTEX 1 4.5 03:55:05 10° SSE 03:59:44 43° ENE 04:04:27 10° N
BREEZE-M DEB (TANK) 4.4 04:05:07 30° E 04:05:07 30° E 04:06:29 10° E
Cosmos 1980 Rocket 2.8 04:02:33 33° N 04:04:57 56° ENE 04:10:32 10° SE
Cosmos 2322 Rocket 4.5 04:02:28 10° N 04:06:32 20° NE 04:10:35 10° E
Cosmos 2221 3.9 04:09:03 31° SSE 04:09:03 31° SSE 04:11:24 10° SSE
Cosmos 1605 Rocket 4.2 04:01:17 10° S 04:07:26 69° E 04:13:33 10° NNE
SL-4 R/B 3.4 04:17:16 37° N 04:17:16 37° N 04:21:34 10° ENE
Meteor 2-2 Rocket 4.3 04:14:39 10° N 04:20:19 73° ENE 04:25:56 10° SSE
Gbstr 26 Del rocket 3.9 04:21:05 34° SSE 04:21:22 35° SE 04:24:48 10° ENE
Cosmos 2369 3.7 04:22:39 59° SW 04:22:39 59° SW 04:27:56 10° S
COSMO-SKYMED 1 4.0 04:19:35 10° SE 04:23:33 36° ENE 04:27:32 10° N
Meteor 1-31 Rocket 3.0 04:24:48 10° NNE 04:28:08 63° NE 04:28:08 63° NE
USA 234 4.4 04:23:57 10° ENE 04:29:35 32° N 04:32:17 23° NNW
Cosmos 1535 Rocket 4.5 04:28:40 47° WSW 04:29:55 54° WNW 04:35:58 10° N
Meteor 1-27 4.2 04:24:46 12° NNW 04:30:07 71° W 04:35:56 10° S
SJ 16-02 2.7 04:26:38 10° S 04:30:43 39° ESE 04:34:48 10° NE
STARLINK-52 4.2 04:32:53 41° NE 04:32:53 41° NE 04:35:22 10° NE
COSMOS 2455 4.1 04:27:07 13° NNW 04:32:03 37° NE 04:37:34 10° ESE
PAYLOAD A 4.0 04:27:44 10° N 04:33:00 65° WNW 04:35:55 27° SW
Cosmos 2360 4.1 04:31:13 38° NW 04:33:28 77° WSW 04:39:11 10° SSE
Cosmos 1869 3.5 04:33:50 27° N 04:35:49 66° E 04:39:42 10° SSE
Cosmos 1484 Rocket 4.0 04:32:00 10° NNE 04:35:51 44° E 04:39:41 10° S
Cosmos 2112 Rocket 4.0 04:34:37 23° NNW 04:38:04 85° ENE 04:43:24 10° SSE
MSX 3.9 04:32:59 10° N 04:38:30 50° WNW 04:39:48 42° WSW
Shenzhou-11 Module 3.7 04:39:55 28° ESE 04:39:55 28° ESE 04:41:30 10° E
COBE Rocket 4.0 04:35:51 10° SSE 04:41:02 86° ENE 04:46:10 10° N
Okean O Rocket 3.8 04:38:16 10° NE 04:41:56 26° E 04:45:35 10° SSE
Cosmos 2278 3.7 04:41:05 41° WNW 04:42:43 56° WSW 04:48:16 10° S
Cosmos 1697 Rocket 3.0 04:45:09 41° W 04:45:22 41° WSW 04:50:35 10° S
Cosmos 1680 Rocket 3.4 04:43:02 28° NNW 04:45:53 72° WSW 04:51:10 10° S
STARLINK-29 3.8 04:46:54 44° N 04:46:54 44° N 04:49:47 10° NE
Cosmos 1892 4.1 04:43:20 10° SSE 04:46:53 38° E 04:50:25 10° NNE
H-2A R/B 3.5 04:44:33 10° N 04:47:32 33° NNW 04:47:32 33° NNW
ALOS 3.6 04:47:01 10° NNE 04:51:26 41° E 04:55:50 10° SSE
COSMOS 2406 4.5 04:54:42 23° NW 04:54:42 23° NW 04:58:40 10° N
STARLINK-60 4.1 04:55:29 33° N 04:55:29 33° N 04:58:14 10° NE
SL-27 R/B 2.2 04:57:13 18° SSW 04:59:33 88° ESE 05:02:53 10° NNE
FALCON 9 DEB 3.8 05:04:14 36° NNW 05:04:22 36° NNW 05:07:36 10° NE
Cosmos 158 Rocket 3.8 04:59:50 11° NNW 05:04:34 87° WSW 05:09:28 10° SSE
CZ-4B DEB 4.5 04:59:15 10° NNE 05:04:43 70° ESE 05:10:10 10° S
STARLINK-80 4.2 05:02:24 17° SSW 05:05:08 50° SE 05:08:52 10° ENE
PSLV R/B 3.6 05:03:02 10° N 05:06:52 74° WNW 05:10:45 10° SSW
USA 116 3.8 05:04:10 10° SSE 05:07:15 58° ENE 05:10:36 10° N
Cosmos 990 Rocket 3.9 05:02:22 10° SSW 05:07:32 84° WNW 05:12:46 10° NNE
Cosmos 2082 Rocket 2.5 05:04:43 21° WSW 05:08:15 44° WNW 05:13:43 10° NNE
In-Cosmos 22 Rocket 4.1 05:03:25 10° S 05:08:45 86° E 05:14:15 10° NNE
Cosmos 2084 Rocket 4.4 05:08:57 29° WNW 05:09:35 31° NW 05:13:34 10° NNE
CZ-4B R/B 4.5 05:05:23 10° N 05:09:35 41° WNW 05:13:48 10° SW
SKYMED 2 3.5 05:07:15 10° S 05:11:34 72° WSW 05:15:56 10° NNW
deb Kosmos-1763 4.0 05:08:12 10° SSW 05:11:53 63° WNW 05:15:34 10° NNE
Cosmos 2100 Rocket 4.0 05:07:57 10° S 05:14:10 90° ENE 05:20:22 10° N
Cosmos 1825 4.3 05:11:25 10° SSE 05:14:42 30° E 05:18:02 10° NNE
Helios 1A Rocket 3.5 05:12:34 10° NNE 05:16:40 61° ESE 05:20:41 10° S
NOSS 3-3 (A) 3.9 05:12:30 10° SW 05:18:25 83° NW 05:25:06 10° NE
NOSS 3-3 (C) 3.9 05:12:37 10° SW 05:18:31 83° NW 05:25:12 10° NE
STARLINK-48 4.2 05:15:32 10° SW 05:19:19 52° SE 05:23:07 10° ENE
Cosmos 1328 Rocket 4.1 05:16:37 10° N 05:20:56 61° E 05:25:11 10° SSE
Cosmos 839 Rocket 4.4 05:16:03 10° WSW 05:22:57 49° NW 05:29:00 10° NNE
Cosmos 1802 Rocket 4.1 05:19:49 10° S 05:26:15 85° E 05:32:42 10° N
CZ-4C R/B 4.1 05:25:13 12° NW 05:28:09 16° N 05:32:06 10° NNE
Lacrosse 5 rocket 3.4 05:26:44 10° NNW 05:28:33 13° N 05:30:23 10° NE
Cosmos 1151 Rocket 3.4 05:24:12 10° N 05:28:35 68° E 05:32:55 10° SSE
Cosmos 1833 Rocket 3.8 05:27:50 19° WNW 05:29:53 23° NW 05:34:20 10° N
Cosmos 1076 Rocket 4.4 05:27:24 10° SW 05:31:07 27° WNW 05:34:49 10° NNW
Cosmos 2058 3.6 05:28:01 10° SW 05:31:50 33° WNW 05:35:40 10° N
Cosmos 1898 Rocket 3.7 05:27:50 10° SW 05:32:54 50° WNW 05:38:02 10° NNE
Cosmos 2061 Rocket 4.1 05:28:23 10° S 05:34:40 87° E 05:40:55 10° N
CZ-2C R/B 3.6 05:33:32 10° NNW 05:37:10 21° WNW 05:40:43 10° WSW
USA 267 4.5 05:30:59 10° ENE 05:37:11 44° SE 05:43:21 10° SSW
CZ-4B R/B 4.0 05:35:45 10° NNW 05:38:14 18° WNW 05:38:16 18° WNW
ASTEX 1 4.5 05:35:03 10° SW 05:38:56 23° W 05:42:52 10° NNW
Lacrosse 5 2.5 05:35:47 16° W 05:39:24 38° NNW 05:44:09 10° NE
SL-16 R/B 2.2 05:34:20 10° NNW 05:40:04 86° WSW 05:45:44 10° SSE
Cosmos 1408 Rocket 3.5 05:38:15 10° S 05:42:33 89° W 05:46:54 10° N
Cosmos 2360 Rocket 3.2 05:37:33 10° NNW 05:43:02 47° ENE 05:48:29 10° SE
Cosmos 1437 4.3 05:41:38 10° SSE 05:44:29 37° E 05:47:21 10° NNE
Okean 3 Rocket 4.0 05:41:27 10° SSW 05:45:45 42° WNW 05:50:03 10° N
Cosmos 1937 Rocket 3.6 05:41:54 10° SW 05:46:54 51° WNW 05:51:55 10° NNE
STARLINK-43 3.5 05:44:35 12° WSW 05:47:53 53° NNW 05:51:33 10° NE
Cosmos 1980 Rocket 3.3 05:44:23 11° NW 05:48:32 24° WSW 05:52:57 10° SSW
ATLAS 2AS CENTAUR R/B 2.9 05:42:33 10° NW 05:50:19 89° NE 05:57:22 10° SE
Cosmos 2322 Rocket 2.2 05:45:37 10° NNW 05:51:18 83° WSW 05:56:58 10° SSE
SJ-12 4.5 05:47:43 10° N 05:51:31 36° WNW 05:55:19 10° SW
NOAA 6 4.0 05:48:03 10° N 05:53:10 69° WNW 05:58:14 10° SSW
Cosmos 2173 Rocket 4.2 05:47:07 10° SSW 05:53:12 51° WNW 05:59:15 10° N
STARLINK-67 4.2 05:51:52 11° NW 05:54:01 23° NNE 05:56:13 10° ENE
Cosmos 1766 Rocket 3.8 05:49:57 10° SSW 05:54:04 43° WNW 05:58:14 10° N
SL-4 R/B 2.9 05:52:52 11° WNW 05:57:30 55° NNE 06:02:12 10° E
COSMO-SKYMED 1 3.7 05:56:21 10° SSW 05:59:48 23° W 06:03:16 10° NW
Gbstr 26 Del rocket 3.0 06:04:23 10° W 06:08:03 47° NNW 06:11:44 10° NE
Cosmos 2233 Rocket 4.3 06:02:00 10° S 06:08:15 78° E 06:14:34 10° N
Cosmos 1864 Rocket 4.5 06:03:13 10° SSW 06:09:18 68° W 06:15:28 10° N
SJ 16-02 2.5 06:05:58 10° WSW 06:09:26 22° WNW 06:12:56 10° N
Cosmos 1484 Rocket 4.3 06:07:17 10° NNW 06:09:55 17° WNW 06:12:33 10° WSW
Cosmos 1400 Rocket 3.4 06:05:57 10° N 06:10:02 63° ENE 06:14:03 10° SSE
CZ-4 R/B 4.3 06:08:08 10° NE 06:10:58 19° E 06:13:45 10° SE
USA 234 3.9 06:05:29 10° E 06:11:45 51° NNE 06:18:02 10° NW
Shenzhou-11 Module 2.6 06:11:19 10° W 06:13:55 41° S 06:16:31 10° ESE
Meteor 1-26 Rocket 4.4 06:08:34 10° N 06:14:22 82° ENE 06:19:58 10° SSE
Cosmos 2333 Rocket 3.8 06:11:08 10° N 06:16:21 33° NE 06:21:31 10° ESE
Cosmos 2228 Rocket 3.2 06:12:14 10° N 06:16:51 85° W 06:21:26 10° S
COSMOS 2455 3.3 06:12:24 10° NW 06:18:06 45° WSW 06:23:46 10° S
